Regional Weather Roundup
Issued by NWS

Home | Current Version | Previous Version | Graphics & Text | Print | Product List | Glossary On
Versions: 1 2 3 4 5 6 7 8 9 10 11 12 13 14 15 16 17 18 19 20 21 22 23 24 25 26 27 28 29 30 31 32 33 34 35 36 37 38 39 40 41 42 43 44 45 46 47 48 49 50
000
ASUS43 KLOT 051512
RWRIL

ILLINOIS REGIONAL WEATHER ROUNDUP
NATIONAL WEATHER SERVICE CHICAGO/ROMEOVILLE IL
1000 AM CDT SUN JUL 05 2015

NOTE: "FAIR" INDICATES FEW OR NO CLOUDS BELOW 12,000 FEET WITH NO
SIGNIFICANT WEATHER AND/OR OBSTRUCTIONS TO VISIBILITY.

* THESE STATIONS ARE NOT UNDER NWS QUALITY CONTROL. THEY ALSO MAY NOT
  REPORT WEATHER SUCH AS PRECIPITATION OR FOG.

ILZ001-002-007-009-015-016-024-051600-
NORTHWEST ILLINOIS

CITY           SKY/WX    TMP DP  RH WIND       PRES   REMARKS
MOLINE         SUNNY     76  64  66 SW7       30.06S
STERLING*      SUNNY     75  66  73 SW3       30.07F
SAVANNA*       SUNNY     75  64  68 SW7       30.07R
$$

ILZ003-004-008-010-011-017-018-051600-
NORTH CENTRAL ILLINOIS

CITY           SKY/WX    TMP DP  RH WIND       PRES   REMARKS
ROCKFORD       SUNNY     76  64  66 S6        30.09F
FREEPORT*      SUNNY     74  65  73 S9        30.08F
ROCHELLE*      SUNNY     75  65  70 S7        30.09F
DE KALB*       SUNNY     73  62  67 SW6       30.09F
PERU*          SUNNY     75  63  65 SW6       30.09F
$$

ILZ005-006-012>014-019>023-051600-
NORTHEAST ILLINOIS

CITY           SKY/WX    TMP DP  RH WIND       PRES   REMARKS
CHICAGO-OHARE  SUNNY     77  60  55 SW6       30.08S
CHICAGO-MIDWAY SUNNY     79  62  56 SW5       30.08F HX  80
AURORA         SUNNY     76  62  62 W5        30.09F
LANSING*       SUNNY     76  60  56 S6        30.09F
JOLIET*        SUNNY     77  66  68 S3        30.10S
WAUKEGAN       SUNNY     76  60  57 VRB6      30.08S
DUPAGE AIRPORT SUNNY     76  62  62 SW6       30.09S
KANKAKEE*      SUNNY     76  65  70 SE5       30.10F
WHEELING       SUNNY     78  60  53 VRB5      30.10S
MORRIS*        SUNNY     75  64  68 CALM      30.08R
ROMEOVILLE*    SUNNY     76  62  60 CALM      30.09S
NORTHERLY ISL    N/A     74  64  71 E3          N/A
$$

LMZ740>746-051600-
SOUTHERN LAKE MICHIGAN

STATION/POSITION SKY/WX   TEMP    WIND        PRES    VSBY  WAVE
                          AIR SEA DIR/SP/G                  HT/PER
                          (F)     (DEG/KT/KT) (MB)    (MI)  (FT/S)
HARRISON CRIB              70      90/  3/  5   N/A
BURNHAM HARBOR             73     100/  4/  6   N/A
CALUMET HARBOR             76     190/  2/  3   N/A
BURNS HARBOR               71     250/  2/  3 1020.0R
MICHIGAN CITY              69     240/  3/  4   N/A
MICHIGAN CITY 6N           70 65  280/  2/  2   N/A           0
ST. JOSEPH                 69 64                N/A           0
$$

ILZ025>027-034>036-040-047-049-050-058-095>099-051600-
WEST-CENTRAL ILLINOIS

CITY           SKY/WX    TMP DP  RH WIND       PRES   REMARKS
QUINCY         PTSUNNY   76  68  76 S9        30.06S
GALESBURG*     SUNNY     75  66  74 S8        30.07S
MACOMB*        SUNNY     74  66  74 S8        30.09R
JACKSONVILLE*  SUNNY     78  65  65 SE9       30.07F HX  80
PITTSFIELD*    MOSUNNY   75  67  76 S3        30.08S
$$

ILZ028>032-037-038-041>044-048-051>054-059>061-051600-
CENTRAL ILLINOIS

CITY           SKY/WX    TMP DP  RH WIND       PRES   REMARKS
PONTIAC        SUNNY     76  67  73 CALM      30.11R
BLOOMINGTON    SUNNY     75  64  68 S6        30.11S
DECATUR        SUNNY     76  65  68 CALM      30.09F
PEORIA         SUNNY     77  63  61 S8        30.08F
LACON*         SUNNY     74  64  70 SW3       30.08S
LINCOLN*       SUNNY     77  65  68 S3        30.09R
SPRINGFIELD    SUNNY     78  64  61 S5        30.08S HX  80
TAYLORVILLE    SUNNY     75  66  73 S6        30.09R
$$

ILZ033-039-045-046-055>057-062-063-051600-
EAST-CENTRAL ILLINOIS

CITY           SKY/WX    TMP DP  RH WIND       PRES   REMARKS
CHAMPAIGN      SUNNY     76  65  68 E3        30.09F
DANVILLE*      SUNNY     74  64  70 CALM      30.07F
RANTOUL*       SUNNY     76  63  63 SE3       30.09F
MATTOON        SUNNY     76  65  68 CALM      30.08S
PARIS*         SUNNY     76  67  72 CALM      30.10S
$$

ILZ079-100>102-051600-
SOUTHWEST ILLINOIS

CITY           SKY/WX    TMP DP  RH WIND       PRES   REMARKS
BELLEVILLE     SUNNY     78  73  84 SW2       30.06F HX  81
CAHOKIA*       SUNNY     79  70  74 CALM      30.07S HX  82
SPARTA*        PTSUNNY   77  69  76 CALM      30.09S
$$

ILZ064>066-069>071-074>076-080>082-084>086-088>090-092>094-051600-
SOUTH-CENTRAL ILLINOIS

CITY           SKY/WX    TMP DP  RH WIND       PRES   REMARKS
CARBONDALE     SUNNY     77  69  76 CALM      30.08S HAZE
CAIRO*         SUNNY     76  71  85 CALM      30.07S HAZE
EFFINGHAM*     SUNNY     78  63  60 CALM      30.09F
MARION         MOSUNNY   75  68  78 E3        30.09S
MT. VERNON     SUNNY     79  66  65 SE3       30.09S HX  81
CENTRALIA*     SUNNY     78  65  64 CALM      30.08S HX  80
SALEM*         SUNNY     79  64  60 CALM      30.09S HX  80
$$

ILZ067-068-072-073-078-083-087-091-051600-
SOUTHEAST ILLINOIS

CITY           SKY/WX    TMP DP  RH WIND       PRES   REMARKS
LAWRENCEVILLE  MOSUNNY   79  69  71 SE3       30.08R HX  81
FLORA*         MOSUNNY   76  67  72 CALM      30.08S
FAIRFIELD*     MOSUNNY   77  69  76 CALM      30.07S
HARRISBURG*    MOSUNNY   72  70  94 CALM      30.09S FOG
ROBINSON*      MOSUNNY   73  68  83 CALM      30.09R
CARMI*         MOSUNNY   78  65  63 CALM      30.07R HX  80
$$

ABBREVIATIONS USED IN REMARKS
   TC - TEMPERATURE IN CELSIUS
  WCI - WIND CHILL INDEX
   HX - HEAT INDEX
  VSB - VISIBILITY
$$




USA.gov is the U.S. government's official web portal to all federal, state and local government web resources and services.